This demonstration page uses our WeatherBlox Daily Observations layout. Learn more.

Left ArrowRight Arrow

Hourly Observations for April 4, 2016

Temp ( °F °C ) Dew Point ( °F °C ) Humidity (%) Winds ( mph kmh ) Pressure ( in mb ) Visibility ( mi km ) Precip ( " mm )
12:51 am 00:51 Clear 50 10 10 -12.2 20 20 SE 5 7 30.01 1016 10 16 0.00 0.00
1:51 am 01:51 Clear 49 9.4 9 -12.8 20 20 Calm 30.01 1016 10 16 0.00 0.00
2:51 am 02:51 Clear 46 7.8 9 -12.8 22 22 SE 5 7 30.01 1016 10 16 0.00 0.00
3:51 am 03:51 Clear 42 5.6 8 -13.3 24 24 Calm 30.02 1017 10 16 0.00 0.00
4:51 am 04:51 Clear 43 6.1 10 -12.2 26 26 SE 5 7 30.04 1017 10 16 0.00 0.00
5:51 am 05:51 Clear 42 5.6 10 -12.2 27 27 S 7 11 30.05 1018 10 16 0.00 0.00
6:51 am 06:51 Sunny 46 7.8 14 -10 27 27 Calm 30.09 1019 10 16 0.00 0.00
7:51 am 07:51 Sunny 61 16.1 17 -8.3 18 18 SE 12 19 30.09 1019 10 16 0.00 0.00
8:51 am 08:51 Sunny 68 20 17 -8.3 14 14 E 12 19 30.09 1019 10 16 0.00 0.00
9:51 am 09:51 Sunny 72 22.2 16 -8.9 12 12 E 8 13 30.09 1019 10 16 0.00 0.00
10:51 am 10:51 Sunny 75 23.9 16 -8.9 10 10 VRB 3 6 30.09 1019 10 16 0.00 0.00
11:51 am 11:51 Sunny 80 26.7 14 -10 8 8 SSE 6 9 30.05 1018 10 16 0.00 0.00
12:51 pm 12:51 Sunny 82 27.8 14 -10 8 8 VRB 7 11 30.02 1017 10 16 0.00 0.00
1:51 pm 13:51 Sunny 87 30.6 14 -10 6 6 NNE 7 11 29.98 1015 10 16 0.00 0.00
2:51 pm 14:51 Sunny 87 30.6 13 -10.6 6 6 NW 8 13 29.95 1014 10 16 0.00 0.00
3:51 pm 15:51 Sunny 85 29.4 11 -11.7 6 6 VRB 3 6 29.94 1014 10 16 0.00 0.00
4:51 pm 16:51 Sunny 87 30.6 12 -11.1 6 6 NW 8 13 29.93 1014 10 16 0.00 0.00
5:51 pm 17:51 Sunny 86 30 12 -11.1 6 6 Calm 29.93 1013 10 16 0.00 0.00
6:51 pm 18:51 Clear 78 25.6 11 -11.7 8 8 NW 5 7 29.94 1014 10 16 0.00 0.00
7:51 pm 19:51 Clear 71 21.7 12 -11.1 10 10 NW 8 13 29.94 1014 10 16 0.00 0.00
8:51 pm 20:51 Clear 70 21.1 15 -9.4 12 12 WNW 9 15 29.94 1014 10 16 0.00 0.00
9:51 pm 21:51 Clear 65 18.3 16 -8.9 15 15 NW 8 13 29.96 1014 10 16 0.00 0.00
10:51 pm 22:51 Clear 66 18.9 13 -10.6 13 13 NW 8 13 29.96 1014 10 16 0.00 0.00
11:51 pm 23:51 Clear 63 17.2 13 -10.6 14 14 NNW 3 6 29.96 1014 10 16 0.00 0.00

Powered by AerisWeather